Location: Moscow
(55.7500°N, 37.5830°E)
Time: 13:16:08
(UTC+03:00)

S-56A Canister/Altair - Pass Details

Date: 08 December 2021
Orbit: 633 x 2499 km, 38.9° (Epoch: 17 January)

Event Time Altitude Azimuth Distance (km) Brightness Sun altitude
Rises 21:27:51 0° 198° (SSW) 5,830 11.9 -44.2°
Enters shadow 21:30:03 - 193° (SSW) 5,346 11.7 -44.4°
Reaches altitude 10° 21:34:22 10° 178° (S) 4,482 - -45.0°
Maximum altitude 21:39:44 14° 151° (SSE) 3,775 - -45.6°
Drops below altitude 10° 21:44:23 10° 123° (ESE) 3,764 - -46.2°
Sets 21:48:55 0° 100° (E) 4,361 - -46.7°
